Dati Storici

Data ora Umidita' aria (%) Temperatura aria (°C) Rad globale (W/m²) Gonioanemometro (°) Tacoanemometro (m/s) Pioggia (mm)
02-07-2020 10:10 97.8 % 23.155 111.275 0.537 0 0
02-07-2020 10:00 97.8 % 23.359 326.646 -0.034 0 0
02-07-2020 09:50 97.9 % 22.845 59.808 -0.022 0 0
02-07-2020 09:40 97.9 % 21.109 133.49 -0.015 0 0
02-07-2020 09:30 97.9 % 20.76 257.742 -0.013 0 0
02-07-2020 09:20 97.9 % 20.532 224.421 -0.011 0 0
02-07-2020 09:10 97.9 % 20.219 207.045 -0.002 0 0
02-07-2020 09:00 97.9 % 20.163 41.903 -0.004 0 0
02-07-2020 08:50 98 % 20.043 278.889 1.324 0 0
02-07-2020 08:40 98 % 20.117 29.871 -0.01 0 0
02-07-2020 08:30 98 % 19.801 330.578 0.002 0 0
02-07-2020 08:20 97.9 % 19.534 317.751 0.004 0 0
02-07-2020 08:10 97.9 % 19.472 1.087 0.001 0 0
02-07-2020 08:00 97.9 % 19.376 230.521 0.457 0 0
02-07-2020 07:50 98 % 19.365 130.535 0.323 0 0
02-07-2020 07:40 98 % 19.481 237.997 0.008 0 0
02-07-2020 07:30 97.9 % 19.642 311.772 0.991 0 0
02-07-2020 07:20 97.9 % 19.468 129.555 1.651 0 0
02-07-2020 07:10 97.9 % 19.104 291.973 4.007 0 0
02-07-2020 07:00 97.7 % 20.562 184.743 1.888 0 0

I dati sono presentati in modo automatico a scopo informativo. In seguito a verifica i dati possono subire modifiche o essere invalidati e non riportati negli archivi definitivi.